Time,TemperatureF,DewpointF,PressureIn,WindDirection,WindDirectionDegrees,WindSpeedMPH,WindSpeedGustMPH,Humidity,HourlyPrecipIn,Conditions,Clouds,dailyrainin,SoftwareType,DateUTC
2013-04-18 00:01:00,44.2,33.2,30.24,East,90,1.0,3.0,65,0.00,,,0.00,Wunderground v.1.15,2013-04-18 04:01:00,
2013-04-18 00:02:00,44.2,32.8,30.24,East,94,1.0,3.0,64,0.00,,,0.00,Wunderground v.1.15,2013-04-18 04:02:00,
2013-04-18 00:03:00,44.3,32.9,30.24,ESE,105,3.0,3.0,64,0.00,,,0.00,Wunderground v.1.15,2013-04-18 04:03:00,
2013-04-18 00:08:00,44.6,32.8,30.24,East,95,1.0,3.0,63,0.00,,,0.00,Wunderground v.1.15,2013-04-18 04:08:00,
2013-04-18 00:13:00,44.8,33.0,30.23,ESE,103,1.0,2.0,63,0.00,,,0.00,Wunderground v.1.15,2013-04-18 04:13:00,
2013-04-18 00:18:00,44.9,33.1,30.23,ESE,103,3.0,4.0,63,0.00,,,0.00,Wunderground v.1.15,2013-04-18 04:18:00,
2013-04-18 00:23:00,44.9,33.5,30.22,East,92,3.0,6.0,64,0.00,,,0.00,Wunderground v.1.15,2013-04-18 04:23:00,
2013-04-18 00:28:00,44.8,33.4,30.21,East,84,3.0,6.0,64,0.00,,,0.00,Wunderground v.1.15,2013-04-18 04:28:00,
2013-04-18 00:33:00,44.7,33.3,30.20,East,99,5.0,6.0,64,0.00,,,0.00,Wunderground v.1.15,2013-04-18 04:33:00,
2013-04-18 00:39:00,44.7,33.6,30.20,East,81,6.0,6.0,65,0.00,,,0.00,Wunderground v.1.15,2013-04-18 04:39:00,
2013-04-18 00:44:00,44.8,33.7,30.20,ENE,74,4.0,8.0,65,0.00,,,0.00,Wunderground v.1.15,2013-04-18 04:44:00,
2013-04-18 00:49:00,44.9,33.8,30.21,SSE,156,0.0,8.0,65,0.00,,,0.00,Wunderground v.1.15,2013-04-18 04:49:00,
2013-04-18 00:55:00,44.9,33.8,30.22,East,85,5.0,5.0,65,0.00,,,0.00,Wunderground v.1.15,2013-04-18 04:55:00,
2013-04-18 01:01:00,44.9,33.8,30.23,East,86,0.0,3.0,65,0.00,,,0.00,Wunderground v.1.15,2013-04-18 05:01:00,
2013-04-18 01:06:00,44.8,34.1,30.22,East,86,2.0,3.0,66,0.00,,,0.00,Wunderground v.1.15,2013-04-18 05:06:00,
2013-04-18 01:11:00,44.7,34.0,30.22,East,86,2.0,2.0,66,0.00,,,0.00,Wunderground v.1.15,2013-04-18 05:11:00,
2013-04-18 01:16:00,44.5,34.2,30.21,East,93,2.0,3.0,67,0.00,,,0.00,Wunderground v.1.15,2013-04-18 05:16:00,
2013-04-18 01:22:00,44.5,34.6,30.20,East,86,3.0,3.0,68,0.00,,,0.00,Wunderground v.1.15,2013-04-18 05:22:00,
2013-04-18 01:27:00,44.5,34.6,30.20,ESE,111,4.0,4.0,68,0.00,,,0.00,Wunderground v.1.15,2013-04-18 05:27:00,
2013-04-18 01:32:00,44.5,34.2,30.21,East,89,1.0,2.0,67,0.00,,,0.00,Wunderground v.1.15,2013-04-18 05:32:00,
2013-04-18 01:37:00,44.6,34.3,30.20,East,89,1.0,2.0,67,0.00,,,0.00,Wunderground v.1.15,2013-04-18 05:37:00,
2013-04-18 01:43:00,44.7,34.4,30.19,East,97,3.0,3.0,67,0.00,,,0.00,Wunderground v.1.15,2013-04-18 05:43:00,
2013-04-18 01:48:00,44.7,34.8,30.20,East,81,1.0,3.0,68,0.00,,,0.00,Wunderground v.1.15,2013-04-18 05:48:00,
2013-04-18 01:53:00,44.7,34.8,30.20,East,81,2.0,2.0,68,0.00,,,0.00,Wunderground v.1.15,2013-04-18 05:53:00,
2013-04-18 01:58:00,44.7,34.8,30.19,East,90,2.0,3.0,68,0.00,,,0.00,Wunderground v.1.15,2013-04-18 05:58:00,
2013-04-18 02:03:00,44.6,35.1,30.19,East,90,1.0,3.0,69,0.00,,,0.00,Wunderground v.1.15,2013-04-18 06:03:00,
2013-04-18 02:08:00,44.6,35.1,30.18,East,90,2.0,3.0,69,0.00,,,0.00,Wunderground v.1.15,2013-04-18 06:08:00,
2013-04-18 02:13:00,44.5,35.0,30.17,East,90,5.0,6.0,69,0.00,,,0.00,Wunderground v.1.15,2013-04-18 06:13:00,
2013-04-18 02:19:00,44.5,35.0,30.15,East,92,2.0,8.0,69,0.00,,,0.00,Wunderground v.1.15,2013-04-18 06:19:00,
2013-04-18 02:24:00,44.6,35.1,30.15,East,94,6.0,7.0,69,0.00,,,0.00,Wunderground v.1.15,2013-04-18 06:24:00,
2013-04-18 02:29:00,44.6,35.1,30.14,East,86,8.0,9.0,69,0.00,,,0.00,Wunderground v.1.15,2013-04-18 06:29:00,
2013-04-18 02:34:00,44.7,34.8,30.15,ESE,117,7.0,11.0,68,0.00,,,0.00,Wunderground v.1.15,2013-04-18 06:34:00,
2013-04-18 02:39:00,45.0,35.1,30.14,East,79,7.0,11.0,68,0.00,,,0.00,Wunderground v.1.15,2013-04-18 06:39:00,
2013-04-18 02:44:00,45.2,35.3,30.14,East,79,0.0,8.0,68,0.00,,,0.00,Wunderground v.1.15,2013-04-18 06:44:00,
2013-04-18 02:49:00,45.6,35.3,30.14,East,82,1.0,10.0,67,0.00,,,0.00,Wunderground v.1.15,2013-04-18 06:49:00,
2013-04-18 02:54:00,45.8,35.5,30.14,East,95,6.0,8.0,67,0.00,,,0.00,Wunderground v.1.15,2013-04-18 06:54:00,
2013-04-18 02:59:00,46.0,35.7,30.13,ENE,71,4.0,8.0,67,0.00,,,0.00,Wunderground v.1.15,2013-04-18 06:59:00,
2013-04-18 03:04:00,46.2,35.8,30.13,ENE,74,4.0,7.0,67,0.00,,,0.00,Wunderground v.1.15,2013-04-18 07:04:00,
2013-04-18 03:09:00,46.3,35.9,30.12,East,92,6.0,8.0,67,0.00,,,0.00,Wunderground v.1.15,2013-04-18 07:09:00,
2013-04-18 03:14:00,46.4,35.7,30.11,East,82,7.0,11.0,66,0.00,,,0.00,Wunderground v.1.15,2013-04-18 07:14:00,
2013-04-18 03:19:00,46.5,36.1,30.12,East,82,5.0,11.0,67,0.00,,,0.00,Wunderground v.1.15,2013-04-18 07:19:00,
2013-04-18 03:24:00,46.6,35.8,30.12,East,95,5.0,7.0,66,0.00,,,0.00,Wunderground v.1.15,2013-04-18 07:24:00,
2013-04-18 03:29:00,46.7,35.9,30.12,NE,38,2.0,7.0,66,0.00,,,0.00,Wunderground v.1.15,2013-04-18 07:29:00,
2013-04-18 03:34:00,46.8,36.0,30.12,East,84,2.0,7.0,66,0.00,,,0.00,Wunderground v.1.15,2013-04-18 07:34:00,
2013-04-18 03:39:00,46.8,36.0,30.12,ENE,72,4.0,7.0,66,0.00,,,0.00,Wunderground v.1.15,2013-04-18 07:39:00,
2013-04-18 03:44:00,46.9,36.5,30.12,ENE,65,3.0,4.0,67,0.00,,,0.00,Wunderground v.1.15,2013-04-18 07:44:00,
2013-04-18 03:49:00,46.9,36.9,30.12,ENE,67,4.0,4.0,68,0.00,,,0.00,Wunderground v.1.15,2013-04-18 07:49:00,
2013-04-18 03:54:00,46.9,36.9,30.12,ENE,67,3.0,4.0,68,0.00,,,0.00,Wunderground v.1.15,2013-04-18 07:54:00,
2013-04-18 03:59:00,46.9,36.9,30.11,ENE,77,4.0,6.0,68,0.00,,,0.00,Wunderground v.1.15,2013-04-18 07:59:00,
2013-04-18 04:04:00,46.8,36.8,30.11,ENE,74,2.0,5.0,68,0.00,,,0.00,Wunderground v.1.15,2013-04-18 08:04:00,
2013-04-18 04:09:00,46.7,37.1,30.11,ENE,72,4.0,5.0,69,0.00,,,0.00,Wunderground v.1.15,2013-04-18 08:09:00,
2013-04-18 04:15:00,46.6,37.0,30.10,ENE,74,5.0,8.0,69,0.00,,,0.00,Wunderground v.1.15,2013-04-18 08:15:00,
2013-04-18 04:20:00,46.6,36.6,30.10,East,83,5.0,7.0,68,0.00,,,0.00,Wunderground v.1.15,2013-04-18 08:20:00,
2013-04-18 04:25:00,46.9,36.5,30.10,ESE,102,4.0,11.0,67,0.00,,,0.00,Wunderground v.1.15,2013-04-18 08:25:00,
2013-04-18 04:30:00,47.2,36.8,30.10,East,94,7.0,9.0,67,0.00,,,0.00,Wunderground v.1.15,2013-04-18 08:30:00,
2013-04-18 04:35:00,47.4,37.0,30.10,East,87,5.0,9.0,67,0.00,,,0.00,Wunderground v.1.15,2013-04-18 08:35:00,
2013-04-18 04:40:00,47.3,37.6,30.09,NE,45,3.0,5.0,69,0.00,,,0.00,Wunderground v.1.15,2013-04-18 08:40:00,
2013-04-18 04:45:00,47.2,37.2,30.09,East,79,8.0,15.0,68,0.00,,,0.00,Wunderground v.1.15,2013-04-18 08:45:00,
2013-04-18 04:50:00,47.2,37.2,30.09,ENE,75,2.0,6.0,68,0.00,,,0.00,Wunderground v.1.15,2013-04-18 08:50:00,
2013-04-18 04:55:00,47.2,37.5,30.09,ENE,76,4.0,10.0,69,0.00,,,0.00,Wunderground v.1.15,2013-04-18 08:55:00,
2013-04-18 05:00:00,47.0,38.1,30.09,ENE,58,4.0,4.0,71,0.00,,,0.00,Wunderground v.1.15,2013-04-18 09:00:00,
2013-04-18 05:05:00,46.6,38.4,30.09,ENE,71,5.0,7.0,73,0.00,,,0.00,Wunderground v.1.15,2013-04-18 09:05:00,
2013-04-18 05:10:00,46.3,38.1,30.08,East,81,6.0,8.0,73,0.00,,,0.00,Wunderground v.1.15,2013-04-18 09:10:00,
2013-04-18 05:15:00,46.2,38.0,30.08,ENE,74,4.0,11.0,73,0.00,,,0.00,Wunderground v.1.15,2013-04-18 09:15:00,
2013-04-18 05:20:00,46.5,37.6,30.08,East,88,10.0,10.0,71,0.00,,,0.00,Wunderground v.1.15,2013-04-18 09:20:00,
2013-04-18 05:25:00,46.9,38.0,30.07,East,80,1.0,10.0,71,0.00,,,0.00,Wunderground v.1.15,2013-04-18 09:25:00,
2013-04-18 05:30:00,47.1,38.2,30.07,East,89,6.0,8.0,71,0.00,,,0.00,Wunderground v.1.15,2013-04-18 09:30:00,
2013-04-18 05:35:00,47.2,38.6,30.06,East,94,7.0,14.0,72,0.00,,,0.00,Wunderground v.1.15,2013-04-18 09:35:00,
2013-04-18 05:40:00,47.0,38.8,30.06,ESE,119,4.0,7.0,73,0.00,,,0.01,Wunderground v.1.15,2013-04-18 09:40:00,
2013-04-18 05:45:00,46.9,39.0,30.06,ESE,111,7.0,10.0,74,0.00,,,0.01,Wunderground v.1.15,2013-04-18 09:45:00,
2013-04-18 05:50:00,46.8,38.9,30.06,East,93,5.0,7.0,74,0.00,,,0.01,Wunderground v.1.15,2013-04-18 09:50:00,
2013-04-18 05:55:00,46.9,38.7,30.06,East,92,5.0,9.0,73,0.00,,,0.01,Wunderground v.1.15,2013-04-18 09:55:00,
2013-04-18 06:00:00,47.1,38.9,30.06,East,82,6.0,9.0,73,0.00,,,0.01,Wunderground v.1.15,2013-04-18 10:00:00,
2013-04-18 06:05:00,47.3,39.1,30.05,ENE,73,2.0,10.0,73,0.00,,,0.01,Wunderground v.1.15,2013-04-18 10:05:00,
2013-04-18 06:10:00,47.5,38.9,30.05,East,90,5.0,5.0,72,0.00,,,0.01,Wunderground v.1.15,2013-04-18 10:10:00,
2013-04-18 06:15:00,47.8,38.8,30.05,East,97,3.0,10.0,71,0.00,,,0.01,Wunderground v.1.15,2013-04-18 10:15:00,
2013-04-18 06:20:00,48.2,38.9,30.05,ESE,112,2.0,5.0,70,0.00,,,0.01,Wunderground v.1.15,2013-04-18 10:20:00,
2013-04-18 06:25:00,48.5,38.8,30.04,SE,140,2.0,10.0,69,0.00,,,0.01,Wunderground v.1.15,2013-04-18 10:25:00,
2013-04-18 06:30:00,48.8,39.1,30.05,SE,128,6.0,6.0,69,0.00,,,0.01,Wunderground v.1.15,2013-04-18 10:30:00,
2013-04-18 06:35:00,48.9,39.5,30.04,SE,132,9.0,10.0,70,0.00,,,0.01,Wunderground v.1.15,2013-04-18 10:35:00,
2013-04-18 06:40:00,48.8,39.8,30.03,East,98,6.0,6.0,71,0.00,,,0.01,Wunderground v.1.15,2013-04-18 10:40:00,
2013-04-18 06:45:00,48.8,39.8,30.03,ESE,120,3.0,10.0,71,0.00,,,0.01,Wunderground v.1.15,2013-04-18 10:45:00,
2013-04-18 06:51:00,48.9,40.3,30.03,ESE,122,4.0,5.0,72,0.00,,,0.01,Wunderground v.1.15,2013-04-18 10:51:00,
2013-04-18 06:56:00,49.0,40.0,30.03,SE,141,4.0,7.0,71,0.00,,,0.01,Wunderground v.1.15,2013-04-18 10:56:00,
2013-04-18 07:01:00,49.2,40.2,30.03,East,93,6.0,10.0,71,0.00,,,0.01,Wunderground v.1.15,2013-04-18 11:01:00,
2013-04-18 07:06:00,49.3,40.7,30.02,East,91,6.0,10.0,72,0.00,,,0.01,Wunderground v.1.15,2013-04-18 11:06:00,
2013-04-18 07:11:00,49.4,40.4,30.02,ESE,120,4.0,8.0,71,0.00,,,0.01,Wunderground v.1.15,2013-04-18 11:11:00,
2013-04-18 07:16:00,49.6,40.6,30.02,ESE,119,3.0,9.0,71,0.00,,,0.01,Wunderground v.1.15,2013-04-18 11:16:00,
2013-04-18 07:21:00,49.7,40.7,30.02,ESE,119,2.0,10.0,71,0.00,,,0.01,Wunderground v.1.15,2013-04-18 11:21:00,
2013-04-18 07:26:00,49.9,40.9,30.02,South,183,1.0,10.0,71,0.00,,,0.01,Wunderground v.1.15,2013-04-18 11:26:00,
2013-04-18 07:31:00,50.2,40.8,30.02,SE,126,7.0,8.0,70,0.00,,,0.01,Wunderground v.1.15,2013-04-18 11:31:00,
2013-04-18 07:36:00,50.5,41.1,30.02,SE,135,8.0,8.0,70,0.00,,,0.01,Wunderground v.1.15,2013-04-18 11:36:00,
2013-04-18 07:41:00,50.8,41.4,30.02,SE,136,7.0,9.0,70,0.00,,,0.01,Wunderground v.1.15,2013-04-18 11:41:00,
2013-04-18 07:46:00,50.9,41.5,30.02,ESE,111,5.0,10.0,70,0.00,,,0.01,Wunderground v.1.15,2013-04-18 11:46:00,
2013-04-18 07:51:00,50.9,41.8,30.01,SE,141,1.0,7.0,71,0.00,,,0.01,Wunderground v.1.15,2013-04-18 11:51:00,
2013-04-18 07:57:00,51.0,41.9,30.01,SSE,168,6.0,10.0,71,0.00,,,0.01,Wunderground v.1.15,2013-04-18 11:57:00,
2013-04-18 08:02:00,51.1,42.0,30.02,ESE,119,5.0,10.0,71,0.00,,,0.01,Wunderground v.1.15,2013-04-18 12:02:00,
2013-04-18 08:07:00,51.3,42.2,30.02,ESE,122,4.0,10.0,71,0.00,,,0.01,Wunderground v.1.15,2013-04-18 12:07:00,
2013-04-18 08:12:00,51.5,42.4,30.01,East,84,8.0,11.0,71,0.00,,,0.01,Wunderground v.1.15,2013-04-18 12:12:00,
2013-04-18 08:17:00,51.8,42.7,30.01,East,94,2.0,11.0,71,0.00,,,0.01,Wunderground v.1.15,2013-04-18 12:17:00,
2013-04-18 08:22:00,52.0,42.9,30.01,East,94,7.0,9.0,71,0.00,,,0.01,Wunderground v.1.15,2013-04-18 12:22:00,
2013-04-18 08:27:00,52.2,43.1,30.01,ESE,105,2.0,9.0,71,0.00,,,0.01,Wunderground v.1.15,2013-04-18 12:27:00,
2013-04-18 08:32:00,52.3,43.2,30.00,SSE,167,5.0,12.0,71,0.00,,,0.01,Wunderground v.1.15,2013-04-18 12:32:00,
2013-04-18 08:37:00,52.6,43.5,30.00,ESE,113,5.0,12.0,71,0.00,,,0.01,Wunderground v.1.15,2013-04-18 12:37:00,
2013-04-18 08:42:00,52.8,43.7,29.99,South,178,4.0,8.0,71,0.00,,,0.01,Wunderground v.1.15,2013-04-18 12:42:00,
2013-04-18 08:47:00,53.2,44.0,29.99,SSE,162,1.0,8.0,71,0.00,,,0.01,Wunderground v.1.15,2013-04-18 12:47:00,
2013-04-18 08:52:00,53.5,44.0,29.99,SE,136,2.0,10.0,70,0.00,,,0.01,Wunderground v.1.15,2013-04-18 12:52:00,
2013-04-18 08:57:00,53.9,44.0,29.98,SSE,163,9.0,12.0,69,0.00,,,0.01,Wunderground v.1.15,2013-04-18 12:57:00,
2013-04-18 09:02:00,54.3,44.3,29.98,South,181,4.0,9.0,69,0.00,,,0.01,Wunderground v.1.15,2013-04-18 13:02:00,
2013-04-18 09:07:00,54.7,44.7,29.98,South,190,7.0,9.0,69,0.00,,,0.01,Wunderground v.1.15,2013-04-18 13:07:00,
2013-04-18 09:13:00,55.2,45.2,29.98,SSE,166,3.0,11.0,69,0.00,,,0.01,Wunderground v.1.15,2013-04-18 13:13:00,
2013-04-18 09:18:00,55.6,45.6,29.97,South,175,1.0,11.0,69,0.00,,,0.01,Wunderground v.1.15,2013-04-18 13:18:00,
2013-04-18 09:23:00,56.2,46.2,29.97,SSE,167,2.0,8.0,69,0.00,,,0.01,Wunderground v.1.15,2013-04-18 13:23:00,
2013-04-18 09:28:00,56.9,46.4,29.96,South,180,3.0,8.0,68,0.00,,,0.01,Wunderground v.1.15,2013-04-18 13:28:00,
2013-04-18 09:33:00,57.8,47.7,29.96,NNW,346,2.0,7.0,69,0.00,,,0.01,Wunderground v.1.15,2013-04-18 13:33:00,
2013-04-18 09:38:00,58.7,48.2,29.95,SSE,168,6.0,10.0,68,0.00,,,0.01,Wunderground v.1.15,2013-04-18 13:38:00,
2013-04-18 09:43:00,59.5,48.9,29.95,SE,132,4.0,11.0,68,0.00,,,0.01,Wunderground v.1.15,2013-04-18 13:43:00,
2013-04-18 09:48:00,60.6,50.0,29.95,South,179,4.0,11.0,68,0.00,,,0.01,Wunderground v.1.15,2013-04-18 13:48:00,
2013-04-18 09:53:00,61.9,50.8,29.94,SSW,203,3.0,11.0,67,0.00,,,0.01,Wunderground v.1.15,2013-04-18 13:53:00,
2013-04-18 09:58:00,63.2,51.6,29.94,South,184,6.0,15.0,66,0.00,,,0.01,Wunderground v.1.15,2013-04-18 13:58:00,
2013-04-18 10:03:00,64.5,52.9,29.94,WSW,251,5.0,9.0,66,0.00,,,0.01,Wunderground v.1.15,2013-04-18 14:03:00,
2013-04-18 10:08:00,65.4,53.3,29.93,South,190,6.0,14.0,65,0.00,,,0.01,Wunderground v.1.15,2013-04-18 14:08:00,
2013-04-18 10:13:00,65.8,53.7,29.93,SSW,192,6.0,10.0,65,0.00,,,0.01,Wunderground v.1.15,2013-04-18 14:13:00,
2013-04-18 10:18:00,65.9,53.8,29.93,South,174,4.0,13.0,65,0.00,,,0.01,Wunderground v.1.15,2013-04-18 14:18:00,
2013-04-18 10:23:00,66.1,54.4,29.93,WSW,241,4.0,10.0,66,0.00,,,0.01,Wunderground v.1.15,2013-04-18 14:23:00,
2013-04-18 10:28:00,66.2,54.5,29.93,SSW,196,3.0,15.0,66,0.00,,,0.01,Wunderground v.1.15,2013-04-18 14:28:00,
2013-04-18 10:33:00,66.6,54.9,29.93,SSE,153,10.0,10.0,66,0.00,,,0.01,Wunderground v.1.15,2013-04-18 14:33:00,
2013-04-18 10:38:00,67.4,55.2,29.93,WSW,258,8.0,12.0,65,0.00,,,0.01,Wunderground v.1.15,2013-04-18 14:38:00,
2013-04-18 10:43:00,68.1,55.5,29.93,South,180,3.0,13.0,64,0.00,,,0.01,Wunderground v.1.15,2013-04-18 14:43:00,
2013-04-18 10:48:00,68.5,55.8,29.92,SSW,196,7.0,14.0,64,0.00,,,0.01,Wunderground v.1.15,2013-04-18 14:48:00,
2013-04-18 10:53:00,69.0,56.3,29.92,SE,146,6.0,11.0,64,0.00,,,0.01,Wunderground v.1.15,2013-04-18 14:53:00,
2013-04-18 10:58:00,69.8,56.6,29.91,SSE,151,10.0,13.0,63,0.00,,,0.01,Wunderground v.1.15,2013-04-18 14:58:00,
2013-04-18 11:03:00,70.7,57.5,29.91,WSW,240,8.0,14.0,63,0.00,,,0.01,Wunderground v.1.15,2013-04-18 15:03:00,
2013-04-18 11:08:00,70.7,57.0,29.91,WSW,252,5.0,14.0,62,0.00,,,0.01,Wunderground v.1.15,2013-04-18 15:08:00,
2013-04-18 11:13:00,70.5,57.3,29.91,SSW,195,3.0,10.0,63,0.00,,,0.01,Wunderground v.1.15,2013-04-18 15:13:00,
2013-04-18 11:18:00,70.7,57.5,29.90,SSW,212,5.0,20.0,63,0.00,,,0.01,Wunderground v.1.15,2013-04-18 15:18:00,
2013-04-18 11:23:00,70.8,57.1,29.90,SSW,209,2.0,13.0,62,0.00,,,0.01,Wunderground v.1.15,2013-04-18 15:23:00,
2013-04-18 11:28:00,70.9,57.2,29.90,SW,219,4.0,13.0,62,0.00,,,0.01,Wunderground v.1.15,2013-04-18 15:28:00,
2013-04-18 11:33:00,70.8,57.1,29.90,South,182,4.0,16.0,62,0.00,,,0.01,Wunderground v.1.15,2013-04-18 15:33:00,
2013-04-18 11:38:00,71.1,57.4,29.90,SE,134,11.0,16.0,62,0.00,,,0.01,Wunderground v.1.15,2013-04-18 15:38:00,
2013-04-18 11:43:00,71.1,57.0,29.89,ESE,123,7.0,10.0,61,0.00,,,0.01,Wunderground v.1.15,2013-04-18 15:43:00,
2013-04-18 11:48:00,71.8,58.1,29.89,WSW,254,9.0,11.0,62,0.00,,,0.01,Wunderground v.1.15,2013-04-18 15:48:00,
2013-04-18 11:53:00,72.6,57.9,29.88,WSW,246,9.0,14.0,60,0.00,,,0.01,Wunderground v.1.15,2013-04-18 15:53:00,
2013-04-18 11:58:00,72.6,57.9,29.87,South,188,4.0,19.0,60,0.00,,,0.01,Wunderground v.1.15,2013-04-18 15:58:00,
2013-04-18 12:03:00,72.8,57.6,29.86,SW,214,6.0,16.0,59,0.00,,,0.01,Wunderground v.1.15,2013-04-18 16:03:00,
2013-04-18 12:08:00,73.5,58.3,29.87,South,173,7.0,16.0,59,0.00,,,0.01,Wunderground v.1.15,2013-04-18 16:08:00,
2013-04-18 12:13:00,73.9,57.7,29.87,SW,232,7.0,14.0,57,0.00,,,0.01,Wunderground v.1.15,2013-04-18 16:13:00,
2013-04-18 12:18:00,73.6,57.4,29.87,ESE,108,11.0,15.0,57,0.00,,,0.01,Wunderground v.1.15,2013-04-18 16:18:00,
2013-04-18 12:23:00,73.4,57.2,29.86,SSW,209,7.0,15.0,57,0.00,,,0.01,Wunderground v.1.15,2013-04-18 16:23:00,
2013-04-18 12:28:00,73.7,57.0,29.86,SW,230,6.0,18.0,56,0.00,,,0.01,Wunderground v.1.15,2013-04-18 16:28:00,
2013-04-18 12:33:00,74.0,57.8,29.86,WSW,238,7.0,16.0,57,0.00,,,0.01,Wunderground v.1.15,2013-04-18 16:33:00,
2013-04-18 12:38:00,74.5,57.8,29.85,South,184,5.0,18.0,56,0.00,,,0.01,Wunderground v.1.15,2013-04-18 16:38:00,
2013-04-18 12:44:00,74.7,57.5,29.85,SSW,202,5.0,14.0,55,0.00,,,0.01,Wunderground v.1.15,2013-04-18 16:44:00,
2013-04-18 12:49:00,75.3,58.0,29.85,SW,214,12.0,19.0,55,0.00,,,0.01,Wunderground v.1.15,2013-04-18 16:49:00,
2013-04-18 12:54:00,75.3,57.5,29.85,SSW,198,11.0,12.0,54,0.00,,,0.01,Wunderground v.1.15,2013-04-18 16:54:00,
2013-04-18 12:59:00,75.7,57.4,29.84,SSW,206,6.0,20.0,53,0.00,,,0.01,Wunderground v.1.15,2013-04-18 16:59:00,
2013-04-18 13:04:00,76.3,57.9,29.84,South,183,11.0,12.0,53,0.00,,,0.01,Wunderground v.1.15,2013-04-18 17:04:00,
2013-04-18 13:09:00,76.6,57.7,29.84,SW,220,7.0,14.0,52,0.00,,,0.01,Wunderground v.1.15,2013-04-18 17:09:00,
2013-04-18 13:14:00,76.6,57.1,29.84,West,268,9.0,15.0,51,0.00,,,0.01,Wunderground v.1.15,2013-04-18 17:14:00,
2013-04-18 13:19:00,76.0,57.1,29.84,SW,227,6.0,16.0,52,0.00,,,0.01,Wunderground v.1.15,2013-04-18 17:19:00,
2013-04-18 13:24:00,76.2,56.7,29.83,South,190,2.0,15.0,51,0.00,,,0.01,Wunderground v.1.15,2013-04-18 17:24:00,
2013-04-18 13:29:00,76.3,56.8,29.83,South,176,4.0,15.0,51,0.00,,,0.01,Wunderground v.1.15,2013-04-18 17:29:00,
2013-04-18 13:34:00,76.4,56.4,29.83,SW,215,4.0,13.0,50,0.00,,,0.01,Wunderground v.1.15,2013-04-18 17:34:00,
2013-04-18 13:39:00,76.5,56.5,29.83,South,189,7.0,13.0,50,0.00,,,0.01,Wunderground v.1.15,2013-04-18 17:39:00,
2013-04-18 13:44:00,76.2,56.2,29.83,South,176,8.0,17.0,50,0.00,,,0.01,Wunderground v.1.15,2013-04-18 17:44:00,
2013-04-18 13:49:00,76.0,56.6,29.83,SW,218,6.0,17.0,51,0.00,,,0.01,Wunderground v.1.15,2013-04-18 17:49:00,
2013-04-18 13:54:00,76.1,56.7,29.82,SW,225,4.0,14.0,51,0.00,,,0.01,Wunderground v.1.15,2013-04-18 17:54:00,
2013-04-18 13:59:00,76.2,56.2,29.81,South,176,6.0,15.0,50,0.00,,,0.01,Wunderground v.1.15,2013-04-18 17:59:00,
2013-04-18 14:04:00,76.3,56.8,29.81,SW,226,7.0,13.0,51,0.00,,,0.01,Wunderground v.1.15,2013-04-18 18:04:00,
2013-04-18 14:09:00,76.7,56.1,29.81,South,173,7.0,14.0,49,0.00,,,0.01,Wunderground v.1.15,2013-04-18 18:09:00,
2013-04-18 14:14:00,77.1,55.9,29.80,SW,219,7.0,16.0,48,0.00,,,0.01,Wunderground v.1.15,2013-04-18 18:14:00,
2013-04-18 14:19:00,77.2,56.0,29.81,SSW,205,5.0,16.0,48,0.00,,,0.01,Wunderground v.1.15,2013-04-18 18:19:00,
2013-04-18 14:24:00,77.3,56.1,29.81,SSE,167,5.0,18.0,48,0.00,,,0.01,Wunderground v.1.15,2013-04-18 18:24:00,
2013-04-18 14:29:00,77.2,56.0,29.81,South,179,10.0,18.0,48,0.00,,,0.01,Wunderground v.1.15,2013-04-18 18:29:00,
2013-04-18 14:34:00,77.0,55.8,29.80,South,188,7.0,16.0,48,0.00,,,0.01,Wunderground v.1.15,2013-04-18 18:34:00,
2013-04-18 14:39:00,77.3,56.6,29.80,South,182,6.0,16.0,49,0.00,,,0.01,Wunderground v.1.15,2013-04-18 18:39:00,
2013-04-18 14:44:00,77.8,56.0,29.79,SW,223,6.0,14.0,47,0.00,,,0.01,Wunderground v.1.15,2013-04-18 18:44:00,
2013-04-18 14:49:00,78.0,56.1,29.80,South,180,6.0,15.0,47,0.00,,,0.01,Wunderground v.1.15,2013-04-18 18:49:00,
2013-04-18 14:54:00,78.5,56.6,29.79,SW,217,6.0,11.0,47,0.00,,,0.01,Wunderground v.1.15,2013-04-18 18:54:00,
2013-04-18 14:59:00,78.8,55.7,29.79,SE,132,14.0,14.0,45,0.00,,,0.01,Wunderground v.1.15,2013-04-18 18:59:00,
2013-04-18 15:04:00,78.4,55.3,29.79,SSW,209,5.0,16.0,45,0.00,,,0.01,Wunderground v.1.15,2013-04-18 19:04:00,
2013-04-18 15:09:00,78.6,56.7,29.79,SW,227,5.0,16.0,47,0.00,,,0.01,Wunderground v.1.15,2013-04-18 19:09:00,
2013-04-18 15:14:00,78.7,56.2,29.79,SSW,211,6.0,12.0,46,0.00,,,0.01,Wunderground v.1.15,2013-04-18 19:14:00,
2013-04-18 15:20:00,78.7,56.2,29.78,SE,137,4.0,7.0,46,0.00,,,0.01,Wunderground v.1.15,2013-04-18 19:20:00,
2013-04-18 15:25:00,79.1,55.9,29.79,SE,140,8.0,15.0,45,0.00,,,0.01,Wunderground v.1.15,2013-04-18 19:25:00,
2013-04-18 15:30:00,78.6,55.5,29.78,SSW,203,4.0,7.0,45,0.00,,,0.01,Wunderground v.1.15,2013-04-18 19:30:00,
2013-04-18 15:35:00,78.9,55.8,29.78,SSW,198,3.0,13.0,45,0.00,,,0.01,Wunderground v.1.15,2013-04-18 19:35:00,
2013-04-18 15:40:00,78.6,56.1,29.78,SSW,201,7.0,7.0,46,0.00,,,0.01,Wunderground v.1.15,2013-04-18 19:40:00,
2013-04-18 15:45:00,78.3,56.4,29.78,SE,135,3.0,16.0,47,0.00,,,0.01,Wunderground v.1.15,2013-04-18 19:45:00,
2013-04-18 15:50:00,78.5,56.6,29.77,SW,230,4.0,7.0,47,0.00,,,0.01,Wunderground v.1.15,2013-04-18 19:50:00,
2013-04-18 15:55:00,78.1,55.6,29.77,South,174,6.0,14.0,46,0.00,,,0.01,Wunderground v.1.15,2013-04-18 19:55:00,
2013-04-18 16:00:00,77.9,55.5,29.77,SSW,208,4.0,7.0,46,0.00,,,0.01,Wunderground v.1.15,2013-04-18 20:00:00,
2013-04-18 16:05:00,77.9,56.0,29.76,WSW,252,4.0,10.0,47,0.00,,,0.01,Wunderground v.1.15,2013-04-18 20:05:00,
2013-04-18 16:10:00,77.4,55.0,29.76,SSW,205,2.0,6.0,46,0.00,,,0.01,Wunderground v.1.15,2013-04-18 20:10:00,
2013-04-18 16:15:00,77.1,55.3,29.76,South,178,4.0,14.0,47,0.00,,,0.01,Wunderground v.1.15,2013-04-18 20:15:00,
2013-04-18 16:20:00,77.1,55.9,29.76,SW,215,3.0,8.0,48,0.00,,,0.01,Wunderground v.1.15,2013-04-18 20:20:00,
2013-04-18 16:25:00,77.3,56.1,29.76,South,188,7.0,21.0,48,0.00,,,0.01,Wunderground v.1.15,2013-04-18 20:25:00,
2013-04-18 16:30:00,77.4,55.6,29.76,SSE,168,7.0,14.0,47,0.00,,,0.01,Wunderground v.1.15,2013-04-18 20:30:00,
2013-04-18 16:35:00,77.0,55.8,29.76,SW,218,7.0,16.0,48,0.00,,,0.01,Wunderground v.1.15,2013-04-18 20:35:00,
2013-04-18 16:40:00,76.8,55.6,29.75,SE,144,7.0,8.0,48,0.00,,,0.01,Wunderground v.1.15,2013-04-18 20:40:00,
2013-04-18 16:46:00,76.1,55.0,29.75,SSW,194,8.0,17.0,48,0.00,,,0.01,Wunderground v.1.15,2013-04-18 20:46:00,
2013-04-18 16:51:00,75.3,55.4,29.75,SE,124,5.0,14.0,50,0.00,,,0.01,Wunderground v.1.15,2013-04-18 20:51:00,
2013-04-18 16:56:00,74.8,55.5,29.75,SSW,199,5.0,14.0,51,0.00,,,0.01,Wunderground v.1.15,2013-04-18 20:56:00,
2013-04-18 17:01:00,74.8,56.0,29.75,SW,223,4.0,10.0,52,0.00,,,0.01,Wunderground v.1.15,2013-04-18 21:01:00,
2013-04-18 17:06:00,74.9,55.6,29.75,SSW,211,6.0,12.0,51,0.00,,,0.01,Wunderground v.1.15,2013-04-18 21:06:00,
2013-04-18 17:11:00,75.0,55.6,29.75,SSE,158,7.0,10.0,51,0.00,,,0.01,Wunderground v.1.15,2013-04-18 21:11:00,
2013-04-18 17:16:00,75.0,55.6,29.75,SSW,198,5.0,13.0,51,0.00,,,0.01,Wunderground v.1.15,2013-04-18 21:16:00,
2013-04-18 17:21:00,74.9,56.1,29.75,SSW,200,2.0,9.0,52,0.00,,,0.01,Wunderground v.1.15,2013-04-18 21:21:00,
2013-04-18 17:26:00,74.9,56.1,29.75,South,191,9.0,12.0,52,0.00,,,0.01,Wunderground v.1.15,2013-04-18 21:26:00,
2013-04-18 17:31:00,74.6,55.8,29.75,South,184,5.0,13.0,52,0.00,,,0.01,Wunderground v.1.15,2013-04-18 21:31:00,
2013-04-18 17:36:00,74.2,56.0,29.75,SSW,192,6.0,13.0,53,0.00,,,0.01,Wunderground v.1.15,2013-04-18 21:36:00,
2013-04-18 17:41:00,73.8,56.1,29.75,SSE,162,8.0,14.0,54,0.00,,,0.01,Wunderground v.1.15,2013-04-18 21:41:00,
2013-04-18 17:46:00,73.4,55.7,29.74,South,175,4.0,14.0,54,0.00,,,0.01,Wunderground v.1.15,2013-04-18 21:46:00,
2013-04-18 17:52:00,72.9,56.3,29.74,SSW,207,7.0,12.0,56,0.00,,,0.01,Wunderground v.1.15,2013-04-18 21:52:00,
2013-04-18 17:57:00,72.7,56.6,29.75,West,271,11.0,12.0,57,0.00,,,0.01,Wunderground v.1.15,2013-04-18 21:57:00,
2013-04-18 18:02:00,72.5,56.4,29.74,SW,219,2.0,13.0,57,0.00,,,0.01,Wunderground v.1.15,2013-04-18 22:02:00,
2013-04-18 18:07:00,72.2,56.6,29.74,South,186,6.0,13.0,58,0.00,,,0.01,Wunderground v.1.15,2013-04-18 22:07:00,
2013-04-18 18:12:00,71.5,55.9,29.74,South,184,7.0,14.0,58,0.00,,,0.01,Wunderground v.1.15,2013-04-18 22:12:00,
2013-04-18 18:17:00,70.9,55.9,29.74,SSW,195,7.0,14.0,59,0.00,,,0.01,Wunderground v.1.15,2013-04-18 22:17:00,
2013-04-18 18:22:00,70.4,55.8,29.74,South,175,9.0,16.0,60,0.00,,,0.01,Wunderground v.1.15,2013-04-18 22:22:00,
2013-04-18 18:27:00,70.1,56.0,29.74,SSW,194,8.0,16.0,61,0.00,,,0.01,Wunderground v.1.15,2013-04-18 22:27:00,
2013-04-18 18:32:00,69.9,56.3,29.74,SE,144,7.0,9.0,62,0.00,,,0.01,Wunderground v.1.15,2013-04-18 22:32:00,
2013-04-18 18:37:00,69.9,56.3,29.73,SW,217,3.0,16.0,62,0.00,,,0.01,Wunderground v.1.15,2013-04-18 22:37:00,
2013-04-18 18:42:00,69.8,56.6,29.73,East,95,5.0,12.0,63,0.00,,,0.01,Wunderground v.1.15,2013-04-18 22:42:00,
2013-04-18 18:47:00,69.6,56.4,29.73,SSW,198,7.0,15.0,63,0.00,,,0.01,Wunderground v.1.15,2013-04-18 22:47:00,
2013-04-18 18:52:00,69.4,56.3,29.74,WSW,242,11.0,15.0,63,0.00,,,0.01,Wunderground v.1.15,2013-04-18 22:52:00,
2013-04-18 18:57:00,69.1,56.4,29.73,SSW,199,6.0,21.0,64,0.00,,,0.01,Wunderground v.1.15,2013-04-18 22:57:00,
2013-04-18 19:02:00,68.8,56.1,29.73,South,190,9.0,16.0,64,0.00,,,0.01,Wunderground v.1.15,2013-04-18 23:02:00,
2013-04-18 19:07:00,68.6,56.4,29.73,South,190,4.0,16.0,65,0.00,,,0.01,Wunderground v.1.15,2013-04-18 23:07:00,
2013-04-18 19:12:00,68.5,56.7,29.73,SSW,209,3.0,12.0,66,0.00,,,0.01,Wunderground v.1.15,2013-04-18 23:12:00,
2013-04-18 19:17:00,68.2,56.4,29.72,South,176,10.0,12.0,66,0.00,,,0.01,Wunderground v.1.15,2013-04-18 23:17:00,
2013-04-18 19:22:00,68.3,56.5,29.72,SW,224,6.0,19.0,66,0.00,,,0.01,Wunderground v.1.15,2013-04-18 23:22:00,
2013-04-18 19:27:00,68.2,56.4,29.72,SW,215,4.0,19.0,66,0.00,,,0.01,Wunderground v.1.15,2013-04-18 23:27:00,
2013-04-18 19:32:00,68.0,56.6,29.72,SW,226,9.0,16.0,67,0.00,,,0.01,Wunderground v.1.15,2013-04-18 23:32:00,
2013-04-18 19:38:00,67.6,56.2,29.73,South,190,13.0,22.0,67,0.00,,,0.01,Wunderground v.1.15,2013-04-18 23:38:00,
2013-04-18 19:43:00,67.4,56.5,29.72,SW,223,11.0,16.0,68,0.00,,,0.01,Wunderground v.1.15,2013-04-18 23:43:00,
2013-04-18 19:48:00,67.1,56.6,29.72,South,180,10.0,16.0,69,0.00,,,0.01,Wunderground v.1.15,2013-04-18 23:48:00,
2013-04-18 19:53:00,66.9,56.4,29.72,SE,142,10.0,12.0,69,0.00,,,0.01,Wunderground v.1.15,2013-04-18 23:53:00,
2013-04-18 19:58:00,66.8,56.7,29.71,SSW,210,11.0,20.0,70,0.00,,,0.01,Wunderground v.1.15,2013-04-18 23:58:00,
2013-04-18 20:03:00,66.6,56.5,29.72,SSW,194,13.0,17.0,70,0.00,,,0.01,Wunderground v.1.15,2013-04-19 00:03:00,
2013-04-18 20:08:00,66.5,56.8,29.72,WSW,246,6.0,22.0,71,0.00,,,0.01,Wunderground v.1.15,2013-04-19 00:08:00,
2013-04-18 20:13:00,66.4,56.7,29.72,South,186,6.0,18.0,71,0.00,,,0.01,Wunderground v.1.15,2013-04-19 00:13:00,
2013-04-18 20:18:00,66.3,56.6,29.72,WSW,248,8.0,18.0,71,0.00,,,0.01,Wunderground v.1.15,2013-04-19 00:18:00,
2013-04-18 20:23:00,66.1,56.8,29.72,WSW,242,3.0,16.0,72,0.00,,,0.01,Wunderground v.1.15,2013-04-19 00:23:00,
2013-04-18 20:28:00,65.9,57.0,29.72,WSW,247,8.0,17.0,73,0.00,,,0.01,Wunderground v.1.15,2013-04-19 00:28:00,
2013-04-18 20:33:00,65.7,56.8,29.72,SW,214,5.0,15.0,73,0.00,,,0.01,Wunderground v.1.15,2013-04-19 00:33:00,
2013-04-18 20:38:00,65.5,56.6,29.72,West,261,5.0,15.0,73,0.00,,,0.01,Wunderground v.1.15,2013-04-19 00:38:00,
2013-04-18 20:43:00,65.4,56.9,29.72,SW,219,5.0,10.0,74,0.00,,,0.01,Wunderground v.1.15,2013-04-19 00:43:00,
2013-04-18 20:48:00,65.4,56.9,29.72,SSW,193,5.0,15.0,74,0.00,,,0.01,Wunderground v.1.15,2013-04-19 00:48:00,
2013-04-18 20:53:00,65.3,57.2,29.72,SW,219,6.0,15.0,75,0.00,,,0.01,Wunderground v.1.15,2013-04-19 00:53:00,
2013-04-18 20:58:00,65.3,57.2,29.72,South,178,7.0,16.0,75,0.00,,,0.01,Wunderground v.1.15,2013-04-19 00:58:00,
2013-04-18 21:03:00,65.2,57.1,29.73,SSW,207,5.0,12.0,75,0.00,,,0.01,Wunderground v.1.15,2013-04-19 01:03:00,
2013-04-18 21:08:00,65.2,57.1,29.72,SSE,161,6.0,15.0,75,0.00,,,0.01,Wunderground v.1.15,2013-04-19 01:08:00,
2013-04-18 21:13:00,65.2,57.1,29.73,SW,216,9.0,15.0,75,0.00,,,0.01,Wunderground v.1.15,2013-04-19 01:13:00,
2013-04-18 21:18:00,65.4,57.3,29.73,SSW,192,7.0,16.0,75,0.00,,,0.01,Wunderground v.1.15,2013-04-19 01:18:00,
2013-04-18 21:23:00,65.5,57.4,29.73,SW,225,3.0,12.0,75,0.00,,,0.01,Wunderground v.1.15,2013-04-19 01:23:00,
2013-04-18 21:28:00,65.4,57.6,29.73,SSW,209,9.0,15.0,76,0.00,,,0.01,Wunderground v.1.15,2013-04-19 01:28:00,
2013-04-18 21:33:00,65.6,57.5,29.73,SSW,193,6.0,12.0,75,0.00,,,0.01,Wunderground v.1.15,2013-04-19 01:33:00,
2013-04-18 21:38:00,65.6,57.8,29.72,SSW,195,7.0,12.0,76,0.00,,,0.01,Wunderground v.1.15,2013-04-19 01:38:00,
2013-04-18 21:43:00,65.6,57.8,29.72,SSW,201,7.0,10.0,76,0.00,,,0.01,Wunderground v.1.15,2013-04-19 01:43:00,
2013-04-18 21:48:00,65.6,57.8,29.72,SW,225,6.0,11.0,76,0.00,,,0.01,Wunderground v.1.15,2013-04-19 01:48:00,
2013-04-18 21:53:00,65.6,57.8,29.72,SW,223,7.0,10.0,76,0.00,,,0.01,Wunderground v.1.15,2013-04-19 01:53:00,
2013-04-18 21:58:00,65.6,57.8,29.72,South,172,8.0,14.0,76,0.00,,,0.01,Wunderground v.1.15,2013-04-19 01:58:00,
2013-04-18 22:03:00,65.7,57.9,29.72,South,181,7.0,12.0,76,0.00,,,0.01,Wunderground v.1.15,2013-04-19 02:03:00,
2013-04-18 22:09:00,65.7,57.9,29.72,SW,227,5.0,12.0,76,0.00,,,0.01,Wunderground v.1.15,2013-04-19 02:09:00,
2013-04-18 22:14:00,65.7,57.9,29.72,SW,219,5.0,12.0,76,0.00,,,0.01,Wunderground v.1.15,2013-04-19 02:14:00,
2013-04-18 22:19:00,65.9,58.1,29.71,SSW,198,4.0,14.0,76,0.00,,,0.01,Wunderground v.1.15,2013-04-19 02:19:00,
2013-04-18 22:24:00,65.9,58.1,29.71,SSW,194,2.0,15.0,76,0.00,,,0.01,Wunderground v.1.15,2013-04-19 02:24:00,
2013-04-18 22:29:00,66.0,58.2,29.71,SW,217,4.0,16.0,76,0.00,,,0.01,Wunderground v.1.15,2013-04-19 02:29:00,
2013-04-18 22:34:00,66.1,58.3,29.71,South,176,6.0,11.0,76,0.00,,,0.01,Wunderground v.1.15,2013-04-19 02:34:00,
2013-04-18 22:39:00,66.1,58.3,29.71,SSE,168,6.0,15.0,76,0.00,,,0.01,Wunderground v.1.15,2013-04-19 02:39:00,
2013-04-18 22:44:00,66.2,58.4,29.70,SW,225,6.0,12.0,76,0.00,,,0.01,Wunderground v.1.15,2013-04-19 02:44:00,
2013-04-18 22:49:00,66.3,58.5,29.70,SSW,199,6.0,12.0,76,0.00,,,0.01,Wunderground v.1.15,2013-04-19 02:49:00,
2013-04-18 22:54:00,66.4,58.2,29.70,SE,141,7.0,13.0,75,0.00,,,0.01,Wunderground v.1.15,2013-04-19 02:54:00,
2013-04-18 22:59:00,66.5,58.3,29.70,SW,223,4.0,14.0,75,0.00,,,0.01,Wunderground v.1.15,2013-04-19 02:59:00,
2013-04-18 23:04:00,66.5,58.3,29.70,South,172,4.0,11.0,75,0.00,,,0.01,Wunderground v.1.15,2013-04-19 03:04:00,
2013-04-18 23:09:00,66.8,58.6,29.70,South,190,4.0,15.0,75,0.00,,,0.01,Wunderground v.1.15,2013-04-19 03:09:00,
2013-04-18 23:14:00,66.9,58.3,29.69,SSW,201,5.0,14.0,74,0.00,,,0.01,Wunderground v.1.15,2013-04-19 03:14:00,
2013-04-18 23:19:00,66.8,58.6,29.69,SSW,199,7.0,14.0,75,0.00,,,0.01,Wunderground v.1.15,2013-04-19 03:19:00,
2013-04-18 23:24:00,66.8,58.6,29.69,SSW,205,7.0,12.0,75,0.00,,,0.01,Wunderground v.1.15,2013-04-19 03:24:00,
2013-04-18 23:29:00,66.9,58.7,29.68,SW,225,4.0,14.0,75,0.00,,,0.01,Wunderground v.1.15,2013-04-19 03:29:00,
2013-04-18 23:34:00,67.0,58.8,29.68,SSW,210,5.0,12.0,75,0.00,,,0.01,Wunderground v.1.15,2013-04-19 03:34:00,
2013-04-18 23:39:00,67.2,58.6,29.68,SSW,196,5.0,14.0,74,0.00,,,0.01,Wunderground v.1.15,2013-04-19 03:39:00,
2013-04-18 23:45:00,67.2,58.6,29.68,SSE,167,10.0,13.0,74,0.00,,,0.01,Wunderground v.1.15,2013-04-19 03:45:00,
2013-04-18 23:50:00,67.4,58.8,29.68,SW,229,6.0,6.0,74,0.00,,,0.01,Wunderground v.1.15,2013-04-19 03:50:00,
2013-04-18 23:55:00,67.5,58.9,29.68,South,186,10.0,17.0,74,0.00,,,0.01,Wunderground v.1.15,2013-04-19 03:55:00,